TimeCDT,TemperatureF,Dew PointF,Humidity,Sea Level PressureIn,VisibilityMPH,Wind Direction,Wind SpeedMPH,Gust SpeedMPH,PrecipitationIn,Events,Conditions,WindDirDegrees,DateUTC
12:53 AM,73.9,66.9,79,29.92,10.0,South,9.2,-,N/A,,Clear,180,2014-05-12 05:53:00
1:53 AM,73.9,66.9,79,29.92,10.0,South,12.7,-,N/A,,Clear,180,2014-05-12 06:53:00
2:53 AM,73.0,66.9,81,29.94,10.0,South,8.1,-,N/A,,Clear,170,2014-05-12 07:53:00
3:53 AM,71.1,66.9,87,29.93,10.0,South,6.9,-,N/A,,Scattered Clouds,180,2014-05-12 08:53:00
4:29 AM,71.6,68.0,88,29.93,10.0,South,10.4,-,N/A,,Mostly Cloudy,170,2014-05-12 09:29:00
4:53 AM,72.0,68.0,87,29.93,10.0,South,10.4,-,N/A,,Overcast,180,2014-05-12 09:53:00
5:53 AM,72.0,68.0,87,29.95,10.0,South,10.4,-,N/A,,Overcast,180,2014-05-12 10:53:00
6:35 AM,73.4,68.0,83,29.96,10.0,South,10.4,-,N/A,,Overcast,180,2014-05-12 11:35:00
6:53 AM,73.0,69.1,87,29.96,10.0,South,10.4,-,N/A,,Overcast,180,2014-05-12 11:53:00
7:49 AM,73.4,69.8,88,29.99,10.0,South,11.5,-,N/A,,Overcast,180,2014-05-12 12:49:00
7:53 AM,73.0,69.1,87,29.99,10.0,South,11.5,-,N/A,,Overcast,180,2014-05-12 12:53:00
8:53 AM,75.2,69.8,83,29.99,10.0,South,10.4,-,N/A,,Mostly Cloudy,180,2014-05-12 13:53:00
9:15 AM,75.2,69.8,83,29.99,10.0,South,10.4,19.6,N/A,,Overcast,190,2014-05-12 14:15:00
9:53 AM,77.0,69.1,76,29.99,10.0,SSW,17.3,23.0,N/A,,Overcast,210,2014-05-12 14:53:00
10:45 AM,78.8,69.8,74,30.01,10.0,SSW,19.6,25.3,N/A,,Overcast,210,2014-05-12 15:45:00
10:53 AM,79.0,69.1,72,30.00,10.0,SSW,15.0,25.3,N/A,,Overcast,200,2014-05-12 15:53:00
11:23 AM,80.6,69.8,70,30.01,10.0,SSW,18.4,24.2,N/A,,Overcast,200,2014-05-12 16:23:00
11:53 AM,82.0,70.0,67,30.00,10.0,SSW,12.7,19.6,N/A,,Mostly Cloudy,200,2014-05-12 16:53:00
12:53 PM,82.9,70.0,65,29.98,10.0,South,15.0,23.0,N/A,,Mostly Cloudy,190,2014-05-12 17:53:00
1:12 PM,82.4,69.8,66,29.98,10.0,South,18.4,-,N/A,Thunderstorm,Overcast,190,2014-05-12 18:12:00
1:29 PM,84.2,69.8,62,29.98,10.0,South,19.6,23.0,N/A,,Mostly Cloudy,180,2014-05-12 18:29:00
1:39 PM,82.4,69.8,66,29.98,10.0,SSW,17.3,24.2,N/A,Thunderstorm,Mostly Cloudy,200,2014-05-12 18:39:00
1:53 PM,81.0,69.1,67,29.96,10.0,SSW,13.8,-,0.00,Rain-Thunderstorm,Light Rain,210,2014-05-12 18:53:00
2:34 PM,80.6,69.8,70,29.97,10.0,SW,11.5,-,0.00,Thunderstorm,Mostly Cloudy,220,2014-05-12 19:34:00
2:53 PM,79.0,69.1,72,29.95,10.0,SSW,15.0,26.5,0.01,Rain-Thunderstorm,Light Rain,210,2014-05-12 19:53:00
3:35 PM,80.6,71.6,74,29.95,10.0,South,6.9,-,0.00,,Mostly Cloudy,180,2014-05-12 20:35:00
3:44 PM,80.6,71.6,74,29.95,10.0,South,8.1,-,0.00,Thunderstorm,Mostly Cloudy,180,2014-05-12 20:44:00
3:53 PM,81.0,70.0,69,29.94,10.0,SSW,17.3,23.0,0.00,,Mostly Cloudy,200,2014-05-12 20:53:00
4:53 PM,82.9,70.0,65,29.91,10.0,South,10.4,-,N/A,,Clear,190,2014-05-12 21:53:00
5:53 PM,84.0,66.0,55,29.88,10.0,South,16.1,20.7,N/A,,Clear,190,2014-05-12 22:53:00
6:53 PM,82.0,66.0,58,29.91,10.0,SSW,10.4,-,N/A,,Mostly Cloudy,210,2014-05-12 23:53:00
7:53 PM,81.0,66.9,62,29.92,10.0,SSW,9.2,-,N/A,Thunderstorm,Thunderstorm,210,2014-05-13 00:53:00
8:48 PM,77.0,68.0,74,29.93,10.0,South,9.2,-,N/A,,Overcast,170,2014-05-13 01:48:00
8:53 PM,77.0,68.0,74,29.92,10.0,South,9.2,-,0.05,,Overcast,170,2014-05-13 01:53:00
9:53 PM,75.2,68.0,78,29.93,10.0,South,5.8,-,N/A,,Partly Cloudy,180,2014-05-13 02:53:00
10:53 PM,75.0,68.0,79,29.94,10.0,South,6.9,-,0.00,,Overcast,190,2014-05-13 03:53:00
11:24 PM,75.2,66.2,73,29.95,10.0,South,6.9,-,N/A,Thunderstorm,Thunderstorm,170,2014-05-13 04:24:00
11:45 PM,75.2,68.0,78,29.94,10.0,South,8.1,-,N/A,,Overcast,180,2014-05-13 04:45:00
11:53 PM,75.0,68.0,79,29.94,10.0,South,9.2,-,N/A,,Mostly Cloudy,190,2014-05-13 04:53:00